MEV-2

Last updated on Tue Sep 16 2025 00:02:50 GMT+0000 (Coordinated Universal Time)

1 46113U 20056B 25258.58440262 -.00000028 00000+0 00000+0 0 9990 2 46113 0.0313 265.3809 0000846 306.8456 351.9728 1.00271389 19171
UTC large
Height (km)
Speed (km/s)
/
Latitude / Longitude
Inclination (degrees)
Orbital Period (minutes)
Azimuth
Elevation
Range (km)
Doppler Factor

Next 0 passes for location: London (51.5072 / 0.1276)

Sorry there are no passes over London.